ARIANE 42P+3 R/B, 23847

Orbit data source: Space-Track

ARIANE 42P+3 R/B, 23847 is space debris in HEO originally from a launch on Sat, 20 Apr 1996 UTC launched from the French Guiana (FRGUI). Debris objects in space refer to the collection of defunct objects orbiting the Earth. Examples of debris include non-operational satellites, rocket bodies, and fragments generated from explosions, collisions, or faulty payload assembly.

Loading next visibility...
Identifier
23847, 1996-022B
Orbit
HEO
Country
Flag of FRFR
Related business
Manufacturer
Ae/LesM
Mission
Spacecraft
Bus & Motor
ARIANE H10-3, Unknown motor
Mass
1,820 kg wet, 1,820 kg dry
Launch date (UTC)
1996-04-20 (30 years ago)
Launch vehicle
Unknown
Launch site
French Guiana (FRGUI)
Object type
Payload
Rocket body
Debris
Shape & HBR
Cyl, 5.5 m
Radar Cross Section
25.199 m², Large (>1 m²)

Expand to show TLE details & history
Last TLE update: 2 days ago

TLE from 2 days ago
0 ARIANE 42P+3 R/B
1 23847U 96022B   26171.14487205  .00003152  00000-0  13947-2 0  9998
2 23847   6.9563 355.4396 6547086  44.2186 352.5337  3.22519987306431
Epoch: 2026-06-20T03:28Z
TLE epoch observation values (Epoch: 2026-06-20T03:28:36.945Z)
Latitude
0.00005°
Longitude
34.9785°
Altitude
1,147.388 km
Speed
9.237 km/s
True Right ascension
23h 41m 59s
True Declination
0° 00' 00"
Sunlit
Object was in daylight at epoch
Visualization orbit readout
Latitude
Unknown
Longitude
Unknown
Altitude
Unknown
Speed
Unknown
Apparent Right ascension
Unknown
Apparent Declination
Unknown
Sunlit
N/A
Visualization observer readout
Local Sidereal Time
23:08:12
Azimuth
Unknown
Elevation
Unknown
Doppler factor
Unknown
Orbital elements
Apogee altitude
25,650.237 km
Perigee altitude
305.289 km
Semi-major axis
19,355.9 km
Eccentricity
0.65471
Inclination
6.9563°
RAAN
355.4396°
Arg. of periapsis
44.2186°
True anomaly
316.28661°
Mean anomaly
352.5337°
Eccentric anomaly
339.23329°
Mean motion
0.80598 °/min
Orbital period
446.66 mins
BSTAR
0.0013947
Loading maneuver chart data...
Computing Atmospheric mass density...
Loading historical data...
Loading historical data...
Loading historical data...
Loading historical data...
Loading historical data...
Loading historical data...
Loading historical data...
Other satellites on launch #22 in the year 1996 (1996-04-20 UTC)

Documentation

Showing up to 5 results
|